THORAD DELTA 1 DEB, 8306

Orbit data source: Space-Track

THORAD DELTA 1 DEB, 8306 is space debris in SSO originally from a launch on Fri, 15 Nov 1974 UTC launched from the Air Force Western Test Range (AFWTR). Debris objects in space refer to the collection of defunct objects orbiting the Earth. Examples of debris include non-operational satellites, rocket bodies, and fragments generated from explosions, collisions, or faulty payload assembly.

Loading next visibility...
Identifier
8306, 1974-089BP
Orbit
SSO
Country
Flag of USUS
Related business
Manufacturer
Unknown
Mission
Spacecraft
Bus & Motor
Unknown
Mass
Unknown
Launch date (UTC)
1974-11-15 (51 years ago)
Launch vehicle
Unknown
Launch site
Air Force Western Test Range (AFWTR)
Object type
Payload
Rocket body
Debris
Shape & HBR
Unknown shape, 0.2 m
Radar Cross Section
Small (<0.1 m²)

Expand to show TLE details & history
Last TLE update: 16 hours ago

TLE from 16 hours ago
0 THORAD DELTA 1 DEB
1 08306U 74089BP  25287.58446176  .00000602  00000-0  41415-2 0  9995
2 08306 101.9816  56.4874 0078854 238.8593 140.1753 12.51382926316234
Epoch: 2025-10-14T14:01Z
TLE epoch observation values (Epoch: 2025-10-14T14:01:37.496Z)
Latitude
19.16565°
Longitude
178.50105°
Altitude
1,508.494 km
Speed
7.09 km/s
True Right ascension
03h 29m 06s
True Declination
19° 04' 10"
Sunlit
Object was in full shadow at epoch
Visualization orbit readout
Latitude
Unknown
Longitude
Unknown
Altitude
Unknown
Speed
Unknown
Apparent Right ascension
Unknown
Apparent Declination
Unknown
Sunlit
N/A
Visualization observer readout
Local Sidereal Time
00:33:14
Azimuth
Unknown
Elevation
Unknown
Doppler factor
Unknown
Orbital elements
Apogee altitude
1,518.052 km
Perigee altitude
1,394.497 km
Semi-major axis
7,834.411 km
Eccentricity
0.00789
Inclination
101.9816°
RAAN
56.4874°
Arg. of periapsis
238.8593°
True anomaly
140.74964°
Mean anomaly
140.1753°
Eccentric anomaly
140.46291°
Mean motion
3.12992 °/min
Orbital period
115.02 mins
BSTAR
0.0041415
Loading maneuver chart data...
Computing Atmospheric mass density...

Documentation

Showing up to 5 results
|